Showing default

ORBCOMM FM 116, 41189

Orbit data source: Space-Track

ORBCOMM FM 116, 41189 is a payload satellite owned by Orbcomm (US) in LEO that was launched on Tue, 22 Dec 2015 UTC via an FALCON 9 launch vehicle from the Air Force Eastern Test Range (AFETR). Payload-class satellites include a variety of spacecraft equipped with specific instruments for various scientific and technological missions. These include communications satellites like Starlink; space stations such as the ISS; scientific satellites like the Hubble; Earth observation satellites from companies like Planet Labs, Umbra, and HawkEye 360; GPS; miniature CubeSats for education and research; and military/defense satellites.

Loading next visibility...
Identifier
41189, 2015-081L
Orbit
LEO
Last TLE update
17 hours ago
Origin
Manufacturer
SNC Louisville
Mission
Operational Commercial Communications
Bus & Motor
SN-100A, Unknown motor
Mass
172 kg wet, 158 kg dry
Launch date (UTC)
2015-12-22 (10 years ago)
Launch vehicle
FALCON 9
Launch site
Air Force Eastern Test Range (AFETR)
Object type
Payload
Rocket body
Debris
Shape & HBR
Box + 1 Pan + 1 Ant, 13 m
Radar Cross Section
2.222 m², Medium (>0.1 m² and < 1m²)

Expand to show TLE details & history

TLE from 17 hours ago
0 ORBCOMM FM 116
1 41189U 15081L   25188.13252615  .00000589  00000-0  16286-3 0  9995
2 41189  47.0023 101.3759 0002440 262.4378  97.6230 14.58238604508561
Epoch: 2025-07-07T03:10Z
TLE epoch observation values (Epoch: 2025-07-07T03:10:50.259Z)
Latitude
-0.00004°
Longitude
128.3202°
Altitude
699.312 km
Speed
7.508 km/s
True Right ascension
06h 45m 30s
True Declination
0° 00' 00"
Sunlit
Object was in daylight at epoch
Visualization orbit readout
Latitude
40.56915°
Longitude
-107.5874°
Altitude
703.399 km
Speed
7.509 km/s
Apparent Right ascension
17h 28m 50s
Apparent Declination
3° 39' 54"
Sunlit
Object is in daylight
Visualization observer readout
Local Sidereal Time
08:13:22
Azimuth
51.011° ENE
Elevation
-32.378°
Doppler factor
1
Orbital elements
Apogee altitude
701.829 km
Perigee altitude
698.374 km
Semi-major axis
7,078.238 km
Eccentricity
0.00024
Inclination
47.0023°
RAAN
101.3759°
Arg. of periapsis
262.4378°
True anomaly
Unknown
Mean anomaly
97.623°
Eccentric anomaly
Unknown
Mean motion
3.64465 °/min
Orbital period
98.78 mins
BSTAR
0.00016286
Loading maneuver chart data...
Loading SW <> Apogee altitude chart data...
Loading historical data...
Loading historical data...
Loading historical data...
Loading historical data...
Loading historical data...
Loading historical data...
Loading historical data...

ORBCOMM FM 116 Visibility forecast

Observer location: undefined°, undefined°

Span
Click to sort rows by Start time (UTC) header in descending order
Start Az.
Max El. time (UTC)
Max El. Az.
Max El.
End time (UTC)
End Az.
9 mins2025-07-07 21:27:40.112Z230.643° WSW2025-07-07 21:31:40.112Z180.595° SSW43.046°2025-07-07 21:36:40.112Z64.938° ENE
7 mins2025-07-07 23:12:40.112Z283.563° WNW2025-07-07 23:15:40.112Z343.165° N34.557°2025-07-07 23:19:40.112Z54.957° ENE
7 mins2025-07-08 00:56:40.112Z306.125° NW2025-07-08 00:59:40.112Z356.379° N31.331°2025-07-08 01:03:40.112Z69.914° E
8 mins2025-07-08 02:40:40.112Z301.52° NW2025-07-08 02:43:40.112Z339.811° N43.757°2025-07-08 02:48:40.112Z113.189° SE
6 mins2025-07-08 04:24:40.112Z264.921° W2025-07-08 04:27:40.112Z213.292° SW23.531°2025-07-08 04:30:40.112Z171.678° S
|